TimeCST,TemperatureF,Dew PointF,Humidity,Sea Level PressureIn,VisibilityMPH,Wind Direction,Wind SpeedMPH,Gust SpeedMPH,PrecipitationIn,Events,Conditions,WindDirDegrees,DateUTC
12:15 AM,58.5,55.4,90,29.48,10.0,SSW,12.7,19.6,N/A,,Overcast,200,2013-11-17 06:15:00
12:35 AM,58.8,55.4,88,29.48,10.0,SSW,13.8,18.4,N/A,,Overcast,210,2013-11-17 06:35:00
12:55 AM,59.0,55.4,88,29.47,10.0,SSW,11.5,16.1,N/A,,Overcast,210,2013-11-17 06:55:00
1:15 AM,59.2,55.4,87,29.47,10.0,SSW,10.4,-,N/A,,Overcast,210,2013-11-17 07:15:00
1:35 AM,59.2,55.4,87,29.48,10.0,SSW,10.4,-,N/A,,Overcast,210,2013-11-17 07:35:00
1:55 AM,59.0,55.4,88,29.48,10.0,SSW,11.5,17.3,N/A,,Overcast,210,2013-11-17 07:55:00
2:15 AM,58.6,55.6,90,29.48,7.0,SW,16.1,20.7,0.01,,Overcast,220,2013-11-17 08:15:00
2:35 AM,58.1,55.4,91,29.46,10.0,SSW,13.8,-,0.04,,Overcast,210,2013-11-17 08:35:00
2:55 AM,57.2,54.5,91,29.43,10.0,South,9.2,-,0.04,,Overcast,190,2013-11-17 08:55:00
3:15 AM,56.8,54.0,90,29.43,10.0,SSW,8.1,-,N/A,,Overcast,210,2013-11-17 09:15:00
3:35 AM,56.5,54.0,91,29.45,10.0,SW,8.1,-,N/A,,Overcast,220,2013-11-17 09:35:00
3:55 AM,56.3,53.2,89,29.44,10.0,SW,5.8,-,N/A,,Overcast,220,2013-11-17 09:55:00
4:15 AM,56.3,52.7,88,29.43,10.0,WSW,5.8,-,N/A,,Overcast,240,2013-11-17 10:15:00
4:35 AM,55.8,52.5,89,29.42,10.0,WSW,5.8,-,N/A,,Overcast,240,2013-11-17 10:35:00
4:55 AM,55.9,52.9,89,29.43,10.0,SW,8.1,-,N/A,,Overcast,230,2013-11-17 10:55:00
5:15 AM,55.8,52.9,90,29.40,10.0,SW,4.6,-,0.01,,Overcast,220,2013-11-17 11:15:00
5:35 AM,55.4,52.9,91,29.41,7.0,SW,6.9,-,0.02,,Overcast,230,2013-11-17 11:35:00
5:55 AM,55.4,53.2,92,29.38,7.0,SW,3.5,-,0.04,,Overcast,230,2013-11-17 11:55:00
6:15 AM,54.7,52.9,94,29.38,10.0,South,3.5,-,N/A,,Overcast,180,2013-11-17 12:15:00
6:35 AM,54.1,52.7,95,29.36,10.0,SE,5.8,-,N/A,,Overcast,130,2013-11-17 12:35:00
6:55 AM,54.7,53.4,96,29.33,7.0,SE,5.8,-,0.01,,Overcast,130,2013-11-17 12:55:00
7:15 AM,54.9,53.6,96,29.36,4.0,SSE,3.5,-,0.03,,Overcast,160,2013-11-17 13:15:00
7:35 AM,54.7,53.6,96,29.33,4.0,Calm,Calm,-,0.04,,Overcast,0,2013-11-17 13:35:00
7:55 AM,54.9,53.8,96,29.31,3.0,East,5.8,-,0.05,,Overcast,100,2013-11-17 13:55:00
8:15 AM,54.5,53.2,96,29.31,2.0,North,4.6,-,N/A,,Overcast,350,2013-11-17 14:15:00
8:35 AM,54.7,53.6,96,29.29,1.5,North,4.6,-,0.05,,Overcast,350,2013-11-17 14:35:00
8:55 AM,54.9,53.8,96,29.31,0.8,WNW,11.5,16.1,0.29,,Overcast,300,2013-11-17 14:55:00
9:15 AM,55.0,54.0,96,29.27,5.0,NNW,8.1,-,0.15,,Overcast,340,2013-11-17 15:15:00
9:35 AM,54.9,53.8,96,29.28,10.0,North,8.1,-,0.15,,Overcast,350,2013-11-17 15:35:00
9:55 AM,54.5,53.6,97,29.25,7.0,NE,4.6,-,0.18,,Overcast,50,2013-11-17 15:55:00
10:15 AM,55.0,54.0,96,29.25,10.0,East,5.8,-,0.01,,Mostly Cloudy,100,2013-11-17 16:15:00
10:35 AM,55.0,54.0,96,29.24,10.0,ESE,6.9,-,0.01,,Overcast,110,2013-11-17 16:35:00
10:55 AM,54.5,53.1,95,29.23,10.0,ESE,5.8,-,0.01,,Overcast,120,2013-11-17 16:55:00
11:15 AM,53.8,52.7,96,29.25,7.0,NW,16.1,-,0.02,,Overcast,310,2013-11-17 17:15:00
11:35 AM,54.3,52.7,94,29.23,10.0,NNW,11.5,-,0.08,,Overcast,330,2013-11-17 17:35:00
11:55 AM,55.4,52.5,90,29.19,10.0,NNW,10.4,-,0.08,,Overcast,330,2013-11-17 17:55:00
12:15 PM,55.4,51.8,88,29.18,10.0,North,10.4,-,N/A,,Mostly Cloudy,350,2013-11-17 18:15:00
12:35 PM,55.0,51.4,88,29.18,10.0,NNW,10.4,-,N/A,,Mostly Cloudy,340,2013-11-17 18:35:00
12:55 PM,54.7,51.4,89,29.18,10.0,North,8.1,-,N/A,,Overcast,350,2013-11-17 18:55:00
1:15 PM,53.6,49.6,86,29.18,10.0,NNW,8.1,-,N/A,,Overcast,330,2013-11-17 19:15:00
1:35 PM,53.6,50.0,88,29.21,10.0,NW,18.4,25.3,N/A,,Overcast,310,2013-11-17 19:35:00
1:55 PM,49.6,45.3,85,29.22,4.0,NW,18.4,27.6,N/A,,Overcast,320,2013-11-17 19:55:00
2:15 PM,48.4,43.9,84,29.22,4.0,NW,15.0,23.0,0.03,,Overcast,320,2013-11-17 20:15:00
2:35 PM,48.4,44.6,87,29.24,10.0,NW,16.1,21.9,0.04,,Overcast,310,2013-11-17 20:35:00
2:55 PM,47.7,43.7,86,29.27,10.0,WNW,19.6,28.8,0.04,,Overcast,300,2013-11-17 20:55:00
3:15 PM,46.8,43.7,89,29.30,5.0,WNW,19.6,33.4,0.01,,Overcast,290,2013-11-17 21:15:00
3:35 PM,45.9,43.2,90,29.32,5.0,WNW,17.3,28.8,0.04,,Overcast,290,2013-11-17 21:35:00
3:55 PM,45.7,43.2,91,29.34,10.0,West,16.1,28.8,0.06,,Overcast,280,2013-11-17 21:55:00
4:15 PM,45.0,41.9,89,29.36,10.0,West,20.7,31.1,N/A,,Overcast,280,2013-11-17 22:15:00
4:35 PM,44.8,41.4,88,29.39,10.0,West,21.9,38.0,N/A,,Overcast,280,2013-11-17 22:35:00
4:55 PM,44.6,41.4,88,29.41,10.0,WNW,23.0,34.5,N/A,,Overcast,290,2013-11-17 22:55:00
5:15 PM,44.2,41.0,88,29.44,10.0,West,20.7,33.4,N/A,,Overcast,280,2013-11-17 23:15:00
5:35 PM,44.1,40.5,87,29.46,10.0,WNW,19.6,32.2,N/A,,Overcast,290,2013-11-17 23:35:00
5:55 PM,44.2,39.6,84,29.47,10.0,WNW,25.3,35.7,N/A,,Overcast,290,2013-11-17 23:55:00
6:15 PM,44.6,39.2,81,29.49,10.0,WNW,18.4,31.1,N/A,,Overcast,290,2013-11-18 00:15:00
6:35 PM,44.8,38.5,79,29.51,10.0,WNW,21.9,33.4,N/A,,Overcast,290,2013-11-18 00:35:00
6:55 PM,44.8,37.8,76,29.51,10.0,West,20.7,33.4,N/A,,Overcast,280,2013-11-18 00:55:00
7:15 PM,44.8,37.9,77,29.53,10.0,West,20.7,27.6,N/A,,Overcast,280,2013-11-18 01:15:00
7:35 PM,44.6,36.9,74,29.54,10.0,WNW,23.0,28.8,N/A,,Overcast,290,2013-11-18 01:35:00
7:55 PM,44.1,35.4,72,29.56,10.0,WNW,21.9,29.9,N/A,,Overcast,290,2013-11-18 01:55:00
8:15 PM,43.2,35.1,73,29.57,10.0,West,16.1,28.8,N/A,,Mostly Cloudy,280,2013-11-18 02:15:00
8:35 PM,42.3,34.9,75,29.59,10.0,West,18.4,25.3,N/A,,Scattered Clouds,280,2013-11-18 02:35:00
8:55 PM,41.9,34.9,76,29.60,10.0,West,20.7,24.2,N/A,,Clear,280,2013-11-18 02:55:00
9:15 PM,41.5,34.7,77,29.60,10.0,WNW,19.6,28.8,N/A,,Clear,290,2013-11-18 03:15:00
9:35 PM,41.4,34.7,77,29.62,10.0,West,20.7,25.3,N/A,,Clear,280,2013-11-18 03:35:00
9:55 PM,41.4,34.2,76,29.63,10.0,West,17.3,32.2,N/A,,Clear,280,2013-11-18 03:55:00